When you browse on this site, cookies collect data to enhance your experience and personalize the content and advertising you see.
Visit our Privacy Policy to learn more. By continuing to use the site, you agree to this use of cookies and data.
  • In United Kingdom
  • List of Countries
  • For 7 days
  • Water Temperature
  • Weather Map
  • Weather Widgets
  • user-avatar
    Login

    Hourly Weather Cuilapa

    Today, 28 May, Thursday

    Time Temperature Precipitation Wind Pressure Humidity
    00:00 +22°C° 0 mm 1 mps 686 mmHg 84%
    01:00 +22°C° 0 mm 1 mps 685 mmHg 83%
    02:00 +22°C° 0 mm 1 mps 685 mmHg 83%
    03:00 +22°C° 0 mm 1 mps 685 mmHg 82%
    04:00 +22°C° 0 mm 1 mps 685 mmHg 82%
    05:00 +22°C° 0 mm 1 mps 685 mmHg 82%
    06:00 +23°C° 0 mm 1 mps 686 mmHg 82%
    07:00 +24°C° 0 mm 1 mps 686 mmHg 80%
    08:00 +25°C° 0 mm 1 mps 686 mmHg 78%
    09:00 +26°C° 0 mm 1 mps 687 mmHg 76%
    10:00 +27°C° 0.1 mm 1 mps 687 mmHg 70%
    11:00 +28°C° 0.1 mm 1 mps 687 mmHg 65%
    12:00 +30°C° 0.1 mm 1 mps 687 mmHg 59%
    13:00 +29°C° 1.1 mm 1 mps 686 mmHg 65%
    14:00 +28°C° 1.1 mm 1 mps 686 mmHg 71%
    15:00 +28°C° 1.1 mm 1 mps 685 mmHg 78%
    16:00 +26°C° 1.2 mm 1 mps 685 mmHg 82%
    17:00 +25°C° 1.2 mm 1 mps 685 mmHg 86%
    18:00 +22°C° 1.2 mm 0 mps 685 mmHg 91%
    19:00 +22°C° 0.1 mm 0 mps 685 mmHg 90%
    20:00 +23°C° 0.1 mm 1 mps 686 mmHg 89%
    21:00 +23°C° 0.1 mm 1 mps 686 mmHg 88%
    22:00 +23°C° 0.3 mm 1 mps 686 mmHg 88%
    23:00 +23°C° 0.3 mm 1 mps 686 mmHg 88%

    Tomorrow, 29 May, Friday

    Time Temperature Precipitation Wind Pressure Humidity
    00:00 +22°C° 0.3 mm 1 mps 686 mmHg 88%
    01:00 +22°C° 0.5 mm 1 mps 686 mmHg 88%
    02:00 +22°C° 0.5 mm 1 mps 685 mmHg 89%
    03:00 +22°C° 0.5 mm 1 mps 685 mmHg 89%
    04:00 +22°C° 0.1 mm 1 mps 685 mmHg 89%
    05:00 +22°C° 0.1 mm 1 mps 685 mmHg 89%
    06:00 +22°C° 0.1 mm 1 mps 685 mmHg 89%
    07:00 +23°C° 0 mm 1 mps 686 mmHg 85%
    08:00 +25°C° 0 mm 1 mps 686 mmHg 80%
    09:00 +24°C° 0 mm 0 mps 687 mmHg 75%
    10:00 +27°C° 0.4 mm 1 mps 687 mmHg 74%
    11:00 +28°C° 0.4 mm 1 mps 686 mmHg 72%
    12:00 +28°C° 0.4 mm 1 mps 686 mmHg 71%
    13:00 +28°C° 1.5 mm 1 mps 686 mmHg 75%
    14:00 +27°C° 1.5 mm 1 mps 685 mmHg 79%
    15:00 +26°C° 1.5 mm 1 mps 684 mmHg 84%
    16:00 +25°C° 1.4 mm 1 mps 684 mmHg 87%
    17:00 +24°C° 1.4 mm 1 mps 684 mmHg 90%
    18:00 +21°C° 1.4 mm 0 mps 684 mmHg 94%
    19:00 +23°C° 1.1 mm 1 mps 685 mmHg 94%
    20:00 +22°C° 1.1 mm 1 mps 685 mmHg 94%
    21:00 +21°C° 1.1 mm 2 mps 686 mmHg 94%
    22:00 +21°C° 0.1 mm 2 mps 685 mmHg 93%
    23:00 +21°C° 0.1 mm 2 mps 685 mmHg 91%

    Day after tomorrow, 30 May, Saturday

    Time Temperature Precipitation Wind Pressure Humidity
    00:00 +20°C° 0.1 mm 2 mps 685 mmHg 90%
    01:00 +20°C° 0 mm 2 mps 685 mmHg 90%
    02:00 +20°C° 0 mm 2 mps 684 mmHg 89%
    03:00 +20°C° 0 mm 2 mps 684 mmHg 89%
    04:00 +20°C° 0.1 mm 2 mps 684 mmHg 88%
    05:00 +21°C° 0.1 mm 2 mps 684 mmHg 88%
    06:00 +21°C° 0.1 mm 2 mps 684 mmHg 87%
    07:00 +23°C° 0 mm 2 mps 685 mmHg 84%
    08:00 +23°C° 0 mm 2 mps 685 mmHg 82%
    09:00 +24°C° 0 mm 2 mps 686 mmHg 79%
    10:00 +26°C° 0.2 mm 2 mps 686 mmHg 75%
    11:00 +27°C° 0.2 mm 2 mps 685 mmHg 70%
    12:00 +28°C° 0.2 mm 2 mps 685 mmHg 65%
    13:00 +27°C° 0.7 mm 2 mps 684 mmHg 72%
    14:00 +26°C° 0.7 mm 1 mps 684 mmHg 78%
    15:00 +25°C° 0.7 mm 1 mps 683 mmHg 84%
    16:00 +25°C° 0.4 mm 1 mps 683 mmHg 86%
    17:00 +24°C° 0.4 mm 2 mps 683 mmHg 88%
    18:00 +23°C° 0.4 mm 2 mps 683 mmHg 90%
    19:00 +23°C° 0.1 mm 2 mps 683 mmHg 90%
    20:00 +23°C° 0.1 mm 2 mps 684 mmHg 90%
    21:00 +21°C° 0.1 mm 2 mps 684 mmHg 90%
    22:00 +21°C° 0.1 mm 2 mps 684 mmHg 90%
    23:00 +21°C° 0.1 mm 2 mps 684 mmHg 90%

    31 May, Sunday

    Time Temperature Precipitation Wind Pressure Humidity
    00:00 +21°C° 0.1 mm 2 mps 683 mmHg 90%
    01:00 +21°C° 1.5 mm 3 mps 683 mmHg 91%
    02:00 +21°C° 1.5 mm 3 mps 682 mmHg 91%
    03:00 +20°C° 1.5 mm 3 mps 681 mmHg 92%
    04:00 +20°C° 5.9 mm 3 mps 681 mmHg 94%
    05:00 +20°C° 5.9 mm 3 mps 681 mmHg 95%
    06:00 +20°C° 5.9 mm 3 mps 681 mmHg 96%
    07:00 +20°C° 9.9 mm 3 mps 681 mmHg 96%
    08:00 +20°C° 9.9 mm 3 mps 681 mmHg 95%
    09:00 +20°C° 9.9 mm 4 mps 682 mmHg 95%
    10:00 +20°C° 13.4 mm 4 mps 681 mmHg 95%
    11:00 +20°C° 13.4 mm 4 mps 681 mmHg 95%
    12:00 +20°C° 13.4 mm 4 mps 681 mmHg 95%
    13:00 +20°C° 15.5 mm 4 mps 680 mmHg 96%
    14:00 +20°C° 15.5 mm 4 mps 680 mmHg 97%
    15:00 +20°C° 15.5 mm 4 mps 680 mmHg 97%
    16:00 +20°C° 17.3 mm 3 mps 680 mmHg 98%
    17:00 +20°C° 17.3 mm 2 mps 681 mmHg 98%
    18:00 +20°C° 17.3 mm 2 mps 681 mmHg 99%
    19:00 +21°C° 7.5 mm 1 mps 682 mmHg 98%
    20:00 +21°C° 7.5 mm 1 mps 682 mmHg 98%
    21:00 +19°C° 7.5 mm 0 mps 683 mmHg 98%
    22:00 +21°C° 3.6 mm 1 mps 683 mmHg 98%
    23:00 +21°C° 3.6 mm 1 mps 683 mmHg 98%

    1 June, Monday

    Time Temperature Precipitation Wind Pressure Humidity
    00:00 +21°C° 3.6 mm 1 mps 683 mmHg 97%
    01:00 +21°C° 0.8 mm 1 mps 682 mmHg 97%
    02:00 +21°C° 0.8 mm 1 mps 682 mmHg 96%
    03:00 +21°C° 0.8 mm 1 mps 682 mmHg 95%
    04:00 +21°C° 0.2 mm 1 mps 682 mmHg 95%
    05:00 +21°C° 0.2 mm 1 mps 682 mmHg 95%
    06:00 +21°C° 0.2 mm 1 mps 682 mmHg 95%
    07:00 +21°C° 1.3 mm 1 mps 683 mmHg 95%
    08:00 +22°C° 1.3 mm 1 mps 684 mmHg 94%
    09:00 +23°C° 1.3 mm 1 mps 685 mmHg 93%
    10:00 +23°C° 5.8 mm 1 mps 684 mmHg 95%
    11:00 +22°C° 5.8 mm 1 mps 684 mmHg 97%
    12:00 +22°C° 5.8 mm 1 mps 684 mmHg 98%
    13:00 +22°C° 2.8 mm 1 mps 684 mmHg 98%
    14:00 +22°C° 2.8 mm 1 mps 683 mmHg 97%
    15:00 +20°C° 2.8 mm 0 mps 683 mmHg 97%
    16:00 +20°C° 4.4 mm 0 mps 683 mmHg 97%
    17:00 +22°C° 4.4 mm 1 mps 683 mmHg 98%
    18:00 +22°C° 4.4 mm 1 mps 683 mmHg 98%
    19:00 +22°C° 5 mm 1 mps 683 mmHg 98%
    20:00 +22°C° 5 mm 1 mps 684 mmHg 97%
    21:00 +22°C° 5 mm 1 mps 684 mmHg 97%
    22:00 +22°C° 4.1 mm 1 mps 684 mmHg 97%
    23:00 +22°C° 4.1 mm 1 mps 684 mmHg 97%

    2 June, Tuesday

    Time Temperature Precipitation Wind Pressure Humidity
    00:00 +22°C° 4.1 mm 1 mps 684 mmHg 98%
    01:00 +22°C° 5.6 mm 1 mps 683 mmHg 98%
    02:00 +21°C° 5.6 mm 2 mps 683 mmHg 98%
    03:00 +21°C° 5.6 mm 2 mps 682 mmHg 98%
    04:00 +21°C° 9.3 mm 2 mps 682 mmHg 98%
    05:00 +21°C° 9.3 mm 2 mps 683 mmHg 97%
    06:00 +21°C° 9.3 mm 2 mps 683 mmHg 97%
    07:00 +20°C° 19.3 mm 2 mps 683 mmHg 97%
    08:00 +20°C° 19.3 mm 2 mps 683 mmHg 98%
    09:00 +20°C° 19.3 mm 2 mps 684 mmHg 98%
    10:00 +20°C° 17.3 mm 2 mps 684 mmHg 98%
    11:00 +20°C° 17.4 mm 2 mps 684 mmHg 98%
    12:00 +20°C° 17.4 mm 2 mps 683 mmHg 98%
    13:00 +21°C° 8.6 mm 1 mps 683 mmHg 98%
    14:00 +21°C° 8.6 mm 1 mps 683 mmHg 97%
    15:00 +21°C° 8.6 mm 1 mps 682 mmHg 97%
    16:00 +21°C° 2.5 mm 1 mps 683 mmHg 97%
    17:00 +21°C° 2.5 mm 1 mps 683 mmHg 97%
    18:00 +21°C° 2.5 mm 1 mps 683 mmHg 97%
    19:00 +21°C° 0.4 mm 1 mps 683 mmHg 96%
    20:00 +21°C° 0.4 mm 1 mps 684 mmHg 96%
    21:00 +21°C° 0.4 mm 1 mps 684 mmHg 95%
    22:00 +21°C° 0.6 mm 1 mps 684 mmHg 95%
    23:00 +21°C° 0.6 mm 1 mps 684 mmHg 95%
    Show more